Retour au catalogue

STARLINK-32431

ActifCommunicationsVLEO
NORAD 61256·PAYLOAD·🇺🇸 United States

Lancé Sep 25, 2024 depuis Vandenberg Space Force Base

Loading…

Prochains Passages (prochaines 24 heures)

TLE

FraisSource: CelesTrak SupGP

Époque: Sep 14, 2026, 21:16 UTC

1 61256C 24175P   26257.88659722  .00045045  00000+0  13320-2 0  2573
2 61256  53.1583  32.0209 0001153  78.7578   2.4246 15.34342475    12

Suivez STARLINK-32431 en temps réel avec AllMySat

Download on the App Store